Home   Weather   Miami   Past weeks
Flag for USA

Past Weather in Miami, Florida, USA — April 2019

Now
52 °F

Passing clouds.


Feels Like: 49 °F
Forecast: 64 / 42 °F
Wind: 8 mph from Northwest

Location: Miami International Airport

Current Time: Jan 22, 2020 at 12:16:12 pm

Latest Report: Jan 22, 2020 at 10:53 am


Visibility: 10 mi

Pressure: 30.08 "Hg

Humidity: 50%

Dew Point: 34 °F

Location of MiamiLocation

April 2019 Weather in Miami — Graph

°F

High & Low Weather Summary for April 2019

 TemperatureHumidityPressure
High89 °F (Apr 26, 12:53 pm)97% (Apr 4, 8:03 am)30.27 "Hg (Apr 4, 8:03 am)
Low60 °F (Apr 21, 3:53 am)35% (Apr 20, 3:53 pm)29.76 "Hg (Apr 10, 4:53 pm)
Average77 °F71%30.03 "Hg
* Reported Apr 1 12:53 am — Apr 30 11:53 pm, Miami. Weather by CustomWeather, © 2020

Note: Actual official high and low records may vary slightly from our data, if they occured in-between our weather recording intervals... More about our weather records

Miami Weather History for April 1, 2019

Scroll right to see more
 ConditionsComfort  
Time TempWeatherWind HumidityBarometerVisibility
12:53 am
Mon, Apr 1
73 °FPassing clouds.3 mph71%30.06 "Hg10 mi
1:53 am72 °FPassing clouds.No wind73%30.04 "Hg10 mi
2:53 am71 °FPassing clouds.3 mph78%30.03 "Hg10 mi
3:53 am71 °FPassing clouds.3 mph76%30.01 "Hg10 mi
4:53 am69 °FPassing clouds.No wind81%30.01 "Hg10 mi
5:53 am69 °FPassing clouds.No wind81%30.02 "Hg10 mi
6:53 am69 °FPassing clouds.No wind79%30.03 "Hg10 mi
7:53 am71 °FPassing clouds.3 mph71%30.06 "Hg10 mi
8:53 am74 °FPassing clouds.3 mph67%30.07 "Hg10 mi
9:53 am77 °FPassing clouds.5 mph64%30.08 "Hg10 mi
10:53 am78 °FScattered clouds.6 mph62%30.08 "Hg10 mi
11:53 am81 °FScattered clouds.9 mph56%30.07 "Hg10 mi
12:53 pm82 °FScattered clouds.10 mph51%30.06 "Hg10 mi
1:53 pm83 °FPassing clouds.14 mph51%30.05 "Hg10 mi
2:53 pm83 °FPassing clouds.17 mph50%30.03 "Hg10 mi
3:53 pm82 °FScattered clouds.10 mph51%30.02 "Hg10 mi
4:53 pm82 °FScattered clouds.13 mph55%30.02 "Hg10 mi
5:53 pm79 °FScattered clouds.14 mph62%30.01 "Hg10 mi
6:53 pm79 °FScattered clouds.13 mph58%30.01 "Hg10 mi
7:53 pm79 °FPassing clouds.8 mph54%30.03 "Hg10 mi
8:53 pm77 °FPassing clouds.6 mph52%30.03 "Hg10 mi
9:53 pm76 °FPassing clouds.7 mph56%30.06 "Hg10 mi
10:53 pm75 °FPassing clouds.5 mph55%30.07 "Hg10 mi
11:53 pm74 °FPassing clouds.5 mph64%30.09 "Hg10 mi
Weather by CustomWeather, © 2020

See weather overview

Advertising